Weather History for Fayetteville, NC

Change the Weather History Date:

Saturday, March 30, 2013

  Actual Average Record
Temperature  
Mean Temperature 58 °F 58 °F  
Max Temperature 68 °F 71 °F 90 °F (1910)
Min Temperature 48 °F 46 °F 26 °F (1955)
Degree Days  
Heating Degree Days 7 7  
Month to date heating degree days 502 336  
Since 1 July heating degree days 2598 2561  
Cooling Degree Days 0 1  
Month to date cooling degree days 3 5  
Year to date cooling degree days 8 9  
Growing Degree Days 7 (Base 50)    
Moisture  
Dew Point 41 °F    
Average Humidity 60    
Maximum Humidity 86    
Minimum Humidity 34    
Precipitation  
Precipitation 0.04 in 0.14 in 1.67 in (1974)
Month to date precipitation 1.50 3.42  
Year to date precipitation 7.14 9.48  
Sea Level Pressure  
Sea Level Pressure 30.16 in    
Wind  
Wind Speed 7 mph (SSW)    
Max Wind Speed 15 mph    
Max Gust Speed 20 mph    
Visibility 10 miles    
Events Rain    
T = Trace of Precipitation, MM = Missing Value Source: NWS Daily Summary

Daily Weather History Graph

Daily Weather History Graph

Search for Another Location

Airport:

Trip Planner

Search our weather history database for the weather conditions in past years. The results will help you decide how hot, cold, wet, or windy it might be!

Date:

Astronomy

Mar. 30, 2013 Rise Set
Actual Time 7:04 AM EDT 7:35 PM EDT
Civil Twilight 6:39 AM EDT 8:00 PM EDT
Nautical Twilight 6:09 AM EDT 8:30 PM EDT
Astronomical Twilight 5:39 AM EDT 9:01 PM EDT
Moon 11:30 PM EDT (3/30) 9:07 AM EDT (3/30)
Length of Visible Light 13h 21m
Length of Day
12h 30m
Waning Gibbous, 86% of the Moon is Illuminated
Mar 30
Waning Gibbous
Apr 3
Last Quarter
Apr 10
New
Apr 18
First Quarter
Apr 25
Full

Hourly Weather History & Observations

Time (EDT) Temp. Dew Point Humidity Pressure Visibility Wind Dir Wind Speed Gust Speed Precip Events Conditions
12:53 AM 50.0 °F 30.9 °F 48% 30.19 in 7.0 mi SSW 6.9 mph - N/A   Mostly Cloudy
1:53 AM 51.1 °F 32.0 °F 48% 30.19 in 10.0 mi SSW 9.2 mph - N/A   Mostly Cloudy
2:53 AM 48.0 °F 34.0 °F 58% 30.19 in 10.0 mi SW 6.9 mph - N/A   Mostly Cloudy
3:53 AM 50.0 °F 35.1 °F 57% 30.18 in 10.0 mi WSW 8.1 mph - N/A   Overcast
4:53 AM 50.0 °F 35.1 °F 57% 30.18 in 10.0 mi WSW 10.4 mph - N/A   Mostly Cloudy
5:53 AM 51.1 °F 37.9 °F 61% 30.19 in 10.0 mi WSW 10.4 mph - N/A   Overcast
6:53 AM 50.0 °F 41.0 °F 71% 30.21 in 10.0 mi WSW 6.9 mph - N/A   Overcast
7:53 AM 48.0 °F 45.0 °F 89% 30.23 in 8.0 mi WSW 6.9 mph - 0.02 in Rain Light Rain
8:53 AM 48.0 °F 46.9 °F 96% 30.24 in 5.0 mi SSW 5.8 mph - 0.02 in   Overcast
9:53 AM 50.0 °F 46.9 °F 89% 30.23 in 9.0 mi WSW 3.5 mph - N/A   Overcast
10:53 AM 54.0 °F 46.9 °F 77% 30.22 in 10.0 mi Variable 3.5 mph - N/A   Overcast
11:53 AM 60.1 °F 46.0 °F 60% 30.19 in 10.0 mi East 3.5 mph - N/A   Scattered Clouds
12:53 PM 62.1 °F 39.9 °F 44% 30.17 in 10.0 mi ENE 3.5 mph - N/A   Mostly Cloudy
1:53 PM 64.9 °F 36.0 °F 34% 30.14 in 10.0 mi SSW 6.9 mph - N/A   Mostly Cloudy
2:53 PM 66.9 °F 37.9 °F 34% 30.12 in 10.0 mi SW 12.7 mph 19.6 mph N/A   Mostly Cloudy
3:53 PM 64.9 °F 39.9 °F 40% 30.09 in 10.0 mi SSW 13.8 mph 17.3 mph N/A   Mostly Cloudy
4:53 PM 64.9 °F 41.0 °F 42% 30.09 in 10.0 mi SSW 11.5 mph - N/A   Clear
5:53 PM 64.0 °F 42.1 °F 45% 30.09 in 10.0 mi South 10.4 mph - N/A   Clear
6:53 PM 63.0 °F 43.0 °F 48% 30.09 in 10.0 mi SSW 8.1 mph - N/A   Clear
7:53 PM 60.1 °F 44.1 °F 55% 30.10 in 10.0 mi SSE 4.6 mph - N/A   Mostly Cloudy
8:53 PM 55.9 °F 44.1 °F 64% 30.11 in 10.0 mi SSE 5.8 mph - N/A   Partly Cloudy
9:53 PM 54.0 °F 45.0 °F 72% 30.12 in 10.0 mi SE 5.8 mph - N/A   Partly Cloudy
10:53 PM 52.0 °F 45.0 °F 77% 30.12 in 10.0 mi SE 5.8 mph - N/A   Clear
11:53 PM 51.1 °F 45.0 °F 80% 30.10 in 10.0 mi SE 6.9 mph - N/A   Clear